Location: Danville Conservation Area
(38.8674°N, 91.5143°W)
Time: 01:39:43
(UTC-06:00)

Envisat - Pass Details

Date: 07 December 2021
Orbit: 764 x 766 km, 98.2° (Epoch: 23 January)

Event Time Altitude Azimuth Distance (km) Brightness Sun altitude
Rises 06:02:05 0° 360° (N) 3,240 6.1 -13.2°
Reaches altitude 10° 06:04:42 10° 348° (NNW) 2,309 5.2 -12.7°
Maximum altitude 06:08:54 27° 293° (WNW) 1,443 3.8 -11.9°
Drops below altitude 10° 06:13:06 10° 236° (SW) 2,296 5.1 -11.1°
Sets 06:15:41 0° 225° (SW) 3,217 6.0 -10.7°
